[[[{"header":{"parameterUnit":"kt","parameterCategory":2,"dx":1,"dy":1,"la1":30.253999710083008,"la2":30.299108505249023,"lo1":-89.0895004272461,"lo2":-89.04439544677734,"nx":28,"ny":28,"refTime":"2022-10-31T21:00:00:Z","depth":0,"parameterNumber":1,"parameterNumberName":"U-component_of_WINDS"},"data":[-0.7618,-0.7641,-0.7624,-0.7645,-0.7632,-0.7646,-0.7645,-0.7644,-0.7638,-0.7655,-0.7663,-0.7648,-0.7638,-0.7646,-0.7656,-0.765,-0.7659,-0.7684,-0.7674,-0.7573,-0.7559,-0.7545,-0.7538,-0.7684,-0.7684,-0.7783,-0.7784,-0.7784,-0.7561,-0.7548,-0.7551,-0.7542,-0.7547,-0.7514,-0.7505,-0.7512,-0.7525,-0.7517,-0.752,-0.7534,-0.7543,-0.7522,-0.753,-0.7547,-0.7533,-0.7551,-0.7552,-0.7553,-0.7443,-0.7436,-0.7563,-0.7563,-0.7563,-0.7563,-0.7562,-0.7562,-0.7453,-0.7467,-0.7448,-0.7451,-0.7441,-0.7436,-0.7447,-0.7426,-0.743,-0.7429,-0.7405,-0.742,-0.7409,-0.7405,-0.7399,-0.7414,-0.7391,-0.7405,-0.741,-0.7416,-0.7428,-0.7303,-0.7412,-0.7412,-0.7411,-0.7411,-0.7411,0,-0.7369,-0.7352,-0.735,-0.7346,-0.7346,-0.7339,-0.733,-0.7336,-0.7291,-0.7297,-0.7304,-0.7305,-0.7308,-0.7316,-0.7315,-0.7305,-0.7273,-0.7264,-0.7276,-0.7292,-0.731,-0.731,-0.714,-0.7262,-0.726,-0.7259,-0.7259,-0.7258,-0.7265,-0.7279,-0.7246,-0.7249,-0.7237,-0.724,-0.7239,-0.7197,-0.7198,-0.7182,-0.7197,-0.72,-0.7201,-0.7217,-0.7193,-0.7196,-0.7181,-0.7231,-0.7181,-0.7198,-0.7191,-0.7193,-0.7199,-0.7243,-0.7245,-0.7247,-0.7248,0,-0.7211,-0.7173,-0.7187,-0.7151,-0.7143,-0.7162,-0.7134,-0.7145,-0.712,-0.7133,-0.7134,-0.7097,-0.7104,-0.707,-0.707,-0.7053,-0.7098,-0.7078,-0.7104,-0.7101,-0.7148,-0.7147,-0.7291,-0.7312,-0.7152,-0.7154,-0.7155,0,-0.7109,-0.7128,-0.7072,-0.7081,-0.7103,-0.7057,-0.7081,-0.7061,-0.7044,-0.7054,-0.7006,-0.7017,-0.6969,-0.6977,-0.6951,-0.6979,-0.6976,-0.6967,-0.6961,-0.6975,-0.6977,-0.6979,-0.6975,-0.6936,-0.6935,-0.6935,-0.6934,0,-0.7031,-0.7017,-0.7032,-0.7023,-0.6984,-0.6994,-0.6979,-0.6956,-0.6954,-0.6946,-0.6945,-0.6938,-0.6936,-0.6935,-0.6901,-0.687,-0.6931,-0.688,-0.6923,-0.6925,-0.6941,-0.6941,-0.7074,-0.6933,-0.6933,-0.6933,-0.6932,0,-0.6943,-0.6929,-0.6953,-0.6921,-0.6919,-0.6928,-0.6917,-0.6915,-0.6895,-0.6878,-0.687,-0.6834,-0.6848,-0.6802,-0.6824,-0.6794,-0.6796,-0.6786,-0.6788,-0.6792,-0.6743,-0.683,-0.6954,-0.6969,-0.6793,-0.6791,-0.679,0,-0.6868,-0.6878,-0.6835,-0.6858,-0.6858,-0.6805,-0.6814,-0.6795,-0.6771,-0.6771,-0.6746,-0.6745,-0.6702,-0.6697,-0.6711,-0.6687,-0.6727,-0.6679,-0.6692,-0.6693,-0.6705,-0.6817,-0.6847,-0.693,-0.6774,-0.6776,-0.6777,0,-0.6804,-0.6748,-0.6755,-0.6744,-0.6705,-0.6703,-0.6712,-0.6698,-0.6701,-0.668,-0.6692,-0.6685,-0.6655,-0.6645,-0.6613,-0.6631,-0.6699,-0.6595,-0.6594,-0.6622,-0.6759,-0.679,-0.6804,-0.6675,-0.6677,-0.6678,-0.6764,0,-0.6693,-0.6688,-0.67,-0.667,-0.666,-0.6668,-0.6623,-0.6621,-0.6591,-0.6563,-0.6574,-0.6544,-0.6531,-0.6532,-0.6501,-0.6549,-0.6537,-0.6502,-0.6457,-0.6528,-0.6557,-0.6567,-0.642,-0.6418,-0.6417,-0.6416,0,0,-0.6634,-0.6624,-0.6572,-0.6575,-0.6565,-0.6505,-0.6519,-0.6501,-0.6467,-0.6463,-0.6437,-0.6424,-0.64,-0.6418,-0.6436,-0.6428,-0.6436,-0.6409,-0.6493,-0.6502,-0.651,-0.6541,-0.6552,-0.6414,-0.6413,-0.6413,-0.6412,0,-0.6583,-0.6552,-0.6562,-0.6541,-0.6507,-0.6475,-0.6478,-0.6434,-0.6417,-0.6421,-0.6374,-0.6374,-0.636,-0.6345,-0.6335,-0.6406,-0.6372,-0.6404,-0.646,-0.6481,-0.6491,-0.65,-0.6533,-0.6545,-0.6409,-0.6409,-0.6409,0,-0.6516,-0.648,-0.6478,-0.6443,-0.642,-0.6418,-0.6359,-0.6356,-0.6356,-0.6289,-0.6295,-0.6272,-0.6245,-0.6263,-0.627,-0.6246,-0.6318,-0.6283,-0.629,-0.6291,-0.631,-0.6323,-0.6334,-0.6186,-0.6185,-0.6185,0,0,-0.6479,-0.647,-0.6417,-0.6428,-0.6417,-0.6368,-0.636,-0.6327,-0.63,-0.6289,-0.6258,-0.6236,-0.6229,-0.6225,-0.6214,-0.6239,-0.6234,-0.6257,-0.6268,-0.6277,-0.6282,-0.6303,-0.6316,-0.6183,-0.6183,-0.6183,0,0,-0.6461,-0.6398,-0.637,-0.6376,-0.6352,-0.6301,-0.6312,-0.6277,-0.6261,-0.6255,-0.6201,-0.6192,-0.6208,-0.6186,-0.6162,-0.6199,-0.6154,-0.6158,-0.6212,-0.6225,-0.6235,-0.6242,-0.6099,0,0,0,0,0,-0.6383,-0.6406,-0.6381,-0.6374,-0.6328,-0.6315,-0.6309,-0.6263,-0.6234,-0.6245,-0.6214,-0.6174,-0.6164,-0.6141,-0.6138,-0.6165,-0.6154,-0.6159,-0.6164,-0.6239,-0.6252,-0.6264,0,0,0,0,0,0,-0.638,-0.6372,-0.638,-0.633,-0.6319,-0.6313,-0.6255,-0.6243,-0.6232,-0.6224,-0.6181,-0.6173,-0.6135,-0.614,-0.6137,-0.6165,-0.6099,-0.6156,-0.616,-0.6164,-0.6243,-0.6254,-0.6264,0,0,0,0,0,-0.6377,-0.6371,-0.6307,-0.633,-0.632,-0.6265,-0.6253,-0.6243,-0.6234,-0.6183,-0.6173,-0.62,-0.6137,-0.6131,-0.6138,-0.6167,-0.6101,-0.61,-0.6159,-0.6162,-0.6165,-0.6249,0,0,0,0,0,0,-0.6375,-0.6362,-0.6305,-0.63,-0.6316,-0.6264,-0.6254,-0.6243,-0.6192,-0.6183,-0.6199,-0.6193,-0.6138,-0.6134,-0.613,-0.6171,-0.6102,-0.6101,-0.6101,-0.6162,-0.6164,-0.6167,0,0,0,0,0,0,-0.6366,-0.6359,-0.6302,-0.6287,-0.6281,-0.6264,-0.6255,-0.6253,-0.6193,-0.6211,-0.6204,-0.6197,-0.6145,-0.6136,-0.6133,-0.6131,-0.6103,-0.6102,-0.6102,-0.6101,-0.6164,-0.6166,0,0,0,0,0,0,-0.6362,-0.6357,-0.6288,-0.6283,-0.6277,-0.6224,-0.6262,-0.6217,-0.6177,-0.6214,-0.6172,-0.617,-0.6148,-0.6144,-0.6135,-0.6135,-0.6132,-0.6103,-0.6103,-0.6102,-0.6102,0,0,0,0,0,0,0,-0.6359,-0.6406,-0.633,-0.628,-0.6274,-0.626,-0.6258,-0.6257,-0.6177,-0.6175,-0.6173,-0.6171,-0.6108,-0.6107,-0.6106,-0.6138,0,0,-0.6103,-0.6103,0,0,0,0,0,0,0,0,-0.6408,-0.6407,-0.633,-0.6329,-0.6329,-0.6259,-0.6258,-0.6257,-0.6176,-0.6175,-0.6173,-0.6172,-0.6107,-0.6107,-0.6106,0,0,0,0,0,0,0,0,0,0,0,0,0,0,0,-0.633,-0.6329,0,-0.6259,-0.6258,-0.6258,-0.6176,-0.6175,-0.6174,-0.6173,-0.6107,-0.6107,-0.6106,0,0,0,0,0,0,0,0,0,0,0,0,0,0,0,0,0,0,0,0,0,0,0,0,0,0,0,0,0,0,0,0,0,0,0,0,0,0,0,0,0,0,0,0,0,0,0,0,0,0,0,0,0,0,0,0,0,0,0,0,0,0,0,0,0,0,0,0,0]}],[{"header":{"parameterUnit":"kt","parameterCategory":2,"dx":1,"dy":1,"la1":30.253999710083008,"la2":30.299108505249023,"lo1":-89.0895004272461,"lo2":-89.04439544677734,"nx":28,"ny":28,"refTime":"2022-10-31T21:00:00:Z","depth":0,"parameterNumber":2,"parameterNumberName":"V-component_of_WINDS"},"data":[1.6508,1.6496,1.647,1.6443,1.6415,1.6391,1.6374,1.6348,1.6321,1.6287,1.6263,1.6234,1.6194,1.6157,1.6127,1.6114,1.6101,1.6116,1.6098,1.606,1.6053,1.6046,1.6047,1.6115,1.6115,1.6139,1.6139,1.6139,1.6479,1.6452,1.6432,1.6393,1.6374,1.6344,1.6311,1.6296,1.6275,1.6241,1.6217,1.6184,1.6155,1.6109,1.6075,1.6065,1.6048,1.6058,1.6056,1.6049,1.601,1.6011,1.6072,1.6072,1.6072,1.6072,1.6072,1.6072,1.642,1.6414,1.6376,1.6353,1.6327,1.6301,1.629,1.6255,1.6233,1.6197,1.6169,1.6144,1.6104,1.605,1.6025,1.6003,1.5986,1.5988,1.5987,1.5988,1.5991,1.5953,1.5996,1.5996,1.5996,1.5996,1.5995,0,1.6367,1.6345,1.6324,1.6295,1.6277,1.6251,1.6223,1.6215,1.6159,1.6144,1.6117,1.6097,1.6057,1.6028,1.599,1.5963,1.5927,1.5922,1.5922,1.5933,1.5947,1.5935,1.5867,1.592,1.5919,1.5919,1.5918,1.5918,1.6301,1.6299,1.6247,1.6235,1.6214,1.6196,1.6179,1.6131,1.6115,1.6072,1.6068,1.604,1.6014,1.5975,1.5932,1.5901,1.5882,1.5905,1.5877,1.5888,1.5877,1.5876,1.5874,1.591,1.5911,1.5912,1.5913,0,1.6265,1.6223,1.6212,1.616,1.6147,1.6146,1.6101,1.6093,1.606,1.6044,1.6037,1.5984,1.5959,1.5912,1.5874,1.585,1.5842,1.5827,1.5854,1.5847,1.586,1.5858,1.5916,1.5919,1.5853,1.5853,1.5854,0,1.619,1.619,1.6126,1.6121,1.6119,1.607,1.6068,1.6039,1.6005,1.5992,1.5946,1.5935,1.5877,1.5858,1.5823,1.5809,1.5803,1.5782,1.5771,1.5784,1.5786,1.5771,1.5766,1.5755,1.5754,1.5754,1.5754,0,1.6135,1.6102,1.6096,1.6081,1.6026,1.6023,1.6,1.5963,1.5947,1.5919,1.5907,1.5879,1.5862,1.584,1.5794,1.5777,1.5778,1.5744,1.5756,1.5757,1.5756,1.5756,1.5822,1.5754,1.5753,1.5753,1.5753,0,1.6066,1.6041,1.604,1.5992,1.5985,1.5981,1.5949,1.5936,1.59,1.5877,1.5855,1.5818,1.5806,1.5775,1.5756,1.5745,1.5731,1.571,1.571,1.5703,1.5669,1.5708,1.578,1.5783,1.57,1.5699,1.5699,0,1.6011,1.6,1.5958,1.5958,1.5945,1.5893,1.5888,1.5858,1.5828,1.5811,1.5778,1.576,1.5728,1.5715,1.5713,1.5676,1.569,1.5673,1.5644,1.5643,1.5651,1.5717,1.5738,1.577,1.5693,1.5694,1.5694,0,1.5964,1.5899,1.5902,1.5882,1.5836,1.5827,1.5822,1.5794,1.5785,1.5758,1.575,1.5726,1.5699,1.568,1.5647,1.5646,1.5679,1.5617,1.5616,1.5626,1.5688,1.5706,1.5712,1.5656,1.5657,1.5657,1.5689,0,1.586,1.5851,1.5859,1.582,1.5806,1.5806,1.5757,1.5748,1.5718,1.5686,1.5676,1.564,1.5611,1.5608,1.5579,1.5594,1.5583,1.5556,1.5519,1.5565,1.5574,1.5578,1.551,1.5509,1.5508,1.5507,0,0,1.5816,1.5801,1.5756,1.5751,1.5735,1.5681,1.5684,1.5663,1.5622,1.5612,1.5592,1.5553,1.5526,1.5517,1.5528,1.5519,1.5515,1.5502,1.5545,1.555,1.5554,1.5564,1.5569,1.5505,1.5504,1.5504,1.5504,0,1.5767,1.5744,1.5749,1.5725,1.5689,1.5656,1.5658,1.5612,1.5591,1.5584,1.5537,1.5526,1.5499,1.5473,1.5456,1.5503,1.5467,1.5498,1.5537,1.5536,1.5542,1.5547,1.5559,1.5564,1.5501,1.5501,1.5501,0,1.5708,1.5675,1.5673,1.564,1.5615,1.5606,1.5556,1.555,1.5541,1.5481,1.5474,1.5448,1.5412,1.5413,1.5412,1.5393,1.5425,1.5409,1.5415,1.5412,1.5408,1.5416,1.5422,1.5335,1.5335,1.5334,0,0,1.5672,1.5664,1.5613,1.5626,1.5614,1.5565,1.5556,1.5525,1.5494,1.5483,1.5448,1.5419,1.5402,1.5392,1.5374,1.5383,1.5369,1.5391,1.5398,1.5405,1.5406,1.5404,1.5411,1.5333,1.5333,1.5333,0,0,1.5654,1.5596,1.5571,1.558,1.5553,1.5503,1.5512,1.5479,1.5458,1.5453,1.5399,1.5389,1.539,1.5366,1.5353,1.5359,1.5325,1.5327,1.5374,1.5383,1.5391,1.5395,1.5296,0,0,0,0,0,1.5579,1.5603,1.5581,1.5575,1.5533,1.5516,1.551,1.5466,1.5442,1.5449,1.5415,1.5379,1.5347,1.5333,1.5328,1.5343,1.5314,1.5318,1.5321,1.5383,1.5393,1.5401,0,0,0,0,0,0,1.5577,1.557,1.558,1.5532,1.5522,1.5515,1.5463,1.5452,1.544,1.5433,1.5387,1.5378,1.5339,1.5333,1.5329,1.5344,1.5297,1.5316,1.5318,1.5321,1.5386,1.5394,1.5402,0,0,0,0,0,1.5574,1.5569,1.5514,1.5531,1.5523,1.547,1.5462,1.5452,1.5442,1.539,1.5379,1.541,1.5341,1.5335,1.533,1.5347,1.53,1.5298,1.5317,1.532,1.5322,1.539,0,0,0,0,0,0,1.5573,1.5559,1.5511,1.5506,1.5519,1.5469,1.546,1.5453,1.5398,1.5389,1.541,1.5405,1.5343,1.5337,1.5332,1.535,1.5302,1.53,1.5299,1.5319,1.5321,1.5322,0,0,0,0,0,0,1.5562,1.5556,1.5508,1.5496,1.549,1.5469,1.5461,1.5452,1.5398,1.5422,1.5416,1.5409,1.5349,1.5339,1.5335,1.5323,1.5303,1.5302,1.5301,1.53,1.5321,1.5322,0,0,0,0,0,0,1.5559,1.5554,1.5497,1.5492,1.5487,1.5434,1.546,1.5419,1.5389,1.5425,1.5385,1.5383,1.5353,1.5348,1.5338,1.5327,1.5324,1.5303,1.5302,1.5302,1.5301,0,0,0,0,0,0,0,1.5556,1.56,1.5537,1.5489,1.5484,1.5466,1.5465,1.5464,1.5389,1.5387,1.5385,1.5384,1.5311,1.5309,1.5308,1.5331,0,0,1.5303,1.5303,0,0,0,0,0,0,0,0,1.5601,1.56,1.5537,1.5536,1.5535,1.5466,1.5465,1.5464,1.5388,1.5387,1.5386,1.5385,1.531,1.5309,1.5308,0,0,0,0,0,0,0,0,0,0,0,0,0,0,0,1.5537,1.5536,0,1.5466,1.5465,1.5464,1.5388,1.5387,1.5386,1.5385,1.531,1.5309,1.5308,0,0,0,0,0,0,0,0,0,0,0,0,0,0,0,0,0,0,0,0,0,0,0,0,0,0,0,0,0,0,0,0,0,0,0,0,0,0,0,0,0,0,0,0,0,0,0,0,0,0,0,0,0,0,0,0,0,0,0,0,0,0,0,0,0,0,0,0,0]}]]]